Tracking 19709 objects as of 17-Jun-2019
HD Live streaming from Space Station
objects crossing your sky now

GEOS 2

Track GEOS 2 now!
GEOS 2 is classified as:


NORAD ID: 10981
Int'l Code: 1978-071A
Perigee: 36,024.6 km
Apogee: 36,066.0 km
Inclination: 11.5 °
Period: 1,449.0 minutes
Semi major axis: 42416 km
RCS: 2.0304 m2 (large)
Launch date: July 14, 1978
Source: European Space Agency (ESA)
Launch site: AIR FORCE EASTERN TEST RANGE (AFETR)
aabbcc
Your satellite tracking list
Your tracking list is empty




NASA's NSSDC Master Catalog

Two Line Element Set (TLE):
1 10981U 78071A   19167.76029553 -.00000333 +00000-0 +00000-0 0  9993
2 10981 011.5195 314.5814 0004889 340.4861 022.1112 00.99381084148581
Source of the keplerian elements: AFSPC